Flag for Czech Republic Weather past 2 weeks in Tábor, Czech Republic

Now
58 °F

Low clouds.


Feels Like: 58 °F
Forecast: 52 / 69 °F
Wind: 6 mph from East

Location: Kocelovice

Current Time: Sep 16, 2014 at 11:26:06 AM

Latest Report: Sep 16, 2014 at 10:00 AM


Visibility: 8 mi

Pressure: 30.08 "Hg

Humidity: 94%

Dew point: 57 °F

Location of TáborLocation

Historic Weather in Tábor — Graph

°F

Tábor temperature yesterday

Maximum temperature yesterday: 68 °F (at 5:00 PM)
Minimum temperature yesterday: 56 °F (at 12:00 AM)
Average temperature yesterday: 61 °F

Past Weeks' High & Low Weather Summary

 TemperatureHumidityPressure
High76 °F (Sep 8, 4:00 PM)100% (Sep 3, 7:00 AM)30.17 "Hg (Sep 3, 7:00 AM)
Low51 °F (Sep 11, 7:00 AM)47% (Sep 6, 4:00 PM)29.81 "Hg (Sep 12, 9:00 AM)
Average59 °F88%30.02 "Hg
* Reported Sep 1 10:00 AM — Sep 16 10:00 AM, Tábor, Weather by CustomWeather, © 2014

Note: Actual official high and low records may vary slightly from our data, if they occured in-between our weather recording intervals... More about our weather records

Advertising

Tábor weather history for previous 24 hours

 ConditionsComfort  
Time TempWeatherWind HumidityBarometerVisibility
10:00 AM
Sep 16
58 °FLow clouds.6 mph94%30.08 "Hg7 mi
9:00 AM58 °FFog.5 mph98%30.07 "Hg4 mi
8:00 AM57 °FFog.2 mph98%30.07 "Hg2 mi
7:00 AM57 °FFog.5 mph98%30.06 "Hg2 mi
6:00 AM58 °FFog.6 mph98%30.05 "Hg2 mi
5:00 AM57 °FFog.3 mph99%30.06 "Hg1 mi
4:00 AM57 °FFog.2 mph99%30.06 "Hg1 mi
3:00 AM57 °FCool.5 mph99%30.06 "Hg1 mi
2:00 AM56 °FFog.2 mph99%30.06 "Hg2 mi
1:00 AM57 °FDuststorm.3 mph99%30.06 "Hg1 mi
12:00 AM58 °FFog.3 mph97%30.06 "Hg4 mi
11:00 PM
Sep 15
60 °FFog.2 mph99%30.06 "Hg2 mi
10:00 PM59 °FFog.2 mph97%30.05 "Hg4 mi
9:00 PM60 °FOvercast.2 mph98%30.04 "Hg5 mi
8:00 PM60 °FOvercast.3 mph98%30.04 "Hg4 mi
7:00 PM62 °FSprinkles. Partly sunny.2 mph90%30.03 "Hg7 mi
6:00 PM67 °FScattered clouds.5 mph72%30.01 "Hg12 mi
5:00 PM68 °FScattered clouds.N/A67%30.01 "Hg19 mi
4:00 PM68 °FScattered clouds.5 mph69%30.01 "Hg16 mi
3:00 PM68 °FScattered clouds.5 mph71%30.02 "Hg14 mi
2:00 PM65 °FScattered clouds.N/A77%30.04 "Hg14 mi
1:00 PM65 °FPartly sunny.N/A77%30.05 "Hg14 mi
12:00 PM61 °FPartly sunny.N/A86%30.06 "Hg14 mi
11:00 AM60 °FOvercast.N/A88%30.06 "Hg12 mi
Weather by CustomWeather, © 2014

See weather overviewHow to use our weather pages